Regional Weather Roundup
Issued by NWS Goodland, KS

Home | Current Version | Previous Version | Text Only | Print | Product List | Glossary Off
Versions: 1 2 3 4 5 6 7 8 9 10 11 12 13 14 15 16 17 18 19 20 21 22 23 24 25 26 27 28 29 30 31 32 33 34 35 36 37 38 39 40 41 42 43 44 45 46 47 48 49 50

000
ASUS43 KGLD 280059
RWRGLD

GOODLAND FORECAST AREA HOURLY WEATHER ROUNDUP
NATIONAL WEATHER SERVICE GOODLAND KS
700 PM MDT TUE JUN 27 2017

...OFFICIAL OBSERVATIONS...

CITY           SKY/WX    TMP DP  RH WIND       PRES   REMARKS
GOODLAND KS    TSTM      71  56  58 S17G33    29.73F
HILL CITY KS   CLOUDY    90  57  32 S15       29.67F
IMPERIAL NEB   CLOUDY    82  46  28 NW13G23   29.70R
MCCOOK NEB     CLOUDY    90  56  31 S18G29    29.63R
AKRON CO       CLOUDY    86  38  18 SE9       29.77S
BURLINGTON CO  CLOUDY    83  50  31 E6        29.76R
LIMON CO       CLOUDY    78  46  32 SE18G29   29.82S
$$

...UNOFFICIAL OBSERVATIONS...

CITY           SKY/WX    TMP DP  RH WIND       PRES   REMARKS
LENORA KS        N/A     89  32  13 MISG        N/A
NORTON KS      SUNNY     88  46  23 SE14      29.66
SHARON SPRINGS   N/A     86  62  44 S14G21      N/A
TRENTON NEB      N/A     87  32  14 S10         N/A
KIT CARSON CO    N/A     82  49  31 MISG        N/A
YUMA CO        FAIR      79  50  36 NW8       29.73R
$$




USA.gov is the U.S. government's official web portal to all federal, state and local government web resources and services.